Tracking 22993 objects as of 11-May-2021
HD Live streaming from Space Station
objects crossing your sky now

SL-6 R/B(2)


SL-6 R/B(2) is no longer on orbit


NORAD ID: 27837
Int'l Code: 2003-029D
Perigee: N/A
Apogee: N/A
Inclination: N/A
Period: N/A
Semi major axis: N/A
RCS: N/A
Launch date: June 19, 2003
Source: Commonwealth of Independent States (former USSR) (CIS)
Launch site: PLESETSK MISSILE AND SPACE COMPLEX (PKMTR)
Decay date: 2013-09-17

Note: This is a ROCKET BODY
aabbcc
Your satellite tracking list
Your tracking list is empty




NASA's NSSDC Master Catalog

Two Line Element Set (TLE):
1 27837U 03029D   13260.10985341  .99999999  33539-5  19825-2 0  9991
2 27837 063.9822 356.0845 0440021 242.6876 195.5995 15.60562885 74815
Source of the keplerian elements: AFSPC